[[{"header":{"parameterUnit":"m.s-1","parameterCategory":1,"la1":30.2991,"la2":30.254,"lo1":-89.0895,"lo2":-89.0444,"dy":0.0017,"dx":0.0017,"nx":28,"ny":28,"refTime":"2023-09-27T09:00:00:Z","depth":0,"parameterNumber":2,"parameterNumberName":"U-component_of_WINDS"},"data":[0,0,0,0,0,0,0,0,0,0,0,0,0,0,0,0,0,0,0,0,0,0,0,0,0,0,0,0,0,0,0,0,0,0,0,0,0,0,0,0,0,0,0,0,0,0,0,0,0,0,0,0,0,0,0,0,0,0,-6.2889,-6.2889,0,-6.2945,-6.2946,-6.2946,-6.2828,-6.2824,-6.282,-6.2816,-6.2871,-6.2876,-6.2881,0,0,0,0,0,0,0,0,0,0,0,0,0,-6.2675,-6.2679,-6.2889,-6.2889,-6.289,-6.2945,-6.2946,-6.2947,-6.2828,-6.2824,-6.2819,-6.2815,-6.2869,-6.2875,-6.2881,0,0,0,0,0,0,0,0,0,0,0,0,0,-6.2753,-6.2681,-6.2889,-6.2838,-6.2834,-6.2945,-6.2946,-6.2947,-6.2829,-6.2824,-6.2818,-6.2813,-6.2867,-6.2875,-6.2882,-6.3044,0,0,-6.2905,-6.2908,0,0,0,0,0,0,0,0,-6.2749,-6.2761,-6.2845,-6.2842,-6.2837,-6.2874,-6.289,-6.2979,-6.2831,-6.2831,-6.2816,-6.281,-6.2876,-6.2883,-6.2906,-6.3046,-6.3049,-6.2906,-6.291,-6.2913,-6.2916,0,0,0,0,0,0,0,-6.2743,-6.2758,-6.2911,-6.2846,-6.2842,-6.2811,-6.2816,-6.2906,-6.2885,-6.2831,-6.2822,-6.2831,-6.2873,-6.2899,-6.2906,-6.3049,-6.2905,-6.2912,-6.2917,-6.292,-6.3325,-6.3331,0,0,0,0,0,0,-6.2745,-6.2754,-6.2909,-6.2913,-6.2778,-6.282,-6.2825,-6.2868,-6.2884,-6.2881,-6.2836,-6.2825,-6.2889,-6.2897,-6.2908,-6.3098,-6.2913,-6.292,-6.2925,-6.3319,-6.3326,-6.3333,0,0,0,0,0,0,-6.2741,-6.276,-6.2907,-6.2831,-6.2847,-6.2829,-6.2878,-6.2872,-6.2897,-6.2888,-6.2883,-6.2866,-6.2885,-6.2897,-6.3011,-6.3098,-6.2924,-6.2931,-6.3311,-6.3321,-6.333,-6.348,0,0,0,0,0,0,-6.2735,-6.2759,-6.2821,-6.2833,-6.2852,-6.3011,-6.2884,-6.2877,-6.2911,-6.2898,-6.2915,-6.2912,-6.2881,-6.3,-6.3018,-6.3105,-6.2937,-6.3303,-6.3316,-6.3327,-6.3467,-6.3493,-6.3516,0,0,0,0,0,-6.2728,-6.2861,-6.2825,-6.2845,-6.293,-6.3016,-6.3026,-6.2989,-6.2919,-6.2981,-6.2974,-6.2912,-6.3086,-6.3013,-6.3032,-6.3123,-6.3298,-6.3312,-6.3326,-6.3456,-6.3488,-6.3515,0,0,0,0,0,0,-6.2858,-6.2861,-6.2822,-6.2963,-6.2991,-6.2996,-6.3073,-6.3024,-6.3071,-6.3056,-6.3006,-6.3011,-6.3135,-6.314,-6.3059,-6.328,-6.318,-6.3198,-6.3272,-6.3302,-6.3326,-6.3322,-6.2943,0,0,0,0,0,-6.2903,-6.2975,-6.2973,-6.3097,-6.3113,-6.3091,-6.3127,-6.3096,-6.3122,-6.3133,-6.3134,-6.3161,-6.3221,-6.3262,-6.3317,-6.3467,-6.3469,-6.3539,-6.3563,-6.3583,-6.36,-6.3679,-6.371,-6.3379,-6.3379,-6.3379,0,0,-6.2997,-6.3008,-6.3056,-6.3124,-6.3141,-6.3215,-6.3102,-6.3184,-6.3238,-6.3144,-6.3253,-6.3255,-6.3281,-6.3414,-6.3472,-6.3422,-6.3692,-6.3601,-6.3617,-6.3623,-6.3697,-6.3728,-6.3756,-6.3389,-6.3387,-6.3385,0,0,-6.3206,-6.3222,-6.3327,-6.3347,-6.3376,-6.336,-6.3386,-6.3399,-6.3397,-6.3505,-6.3436,-6.3499,-6.3604,-6.3626,-6.365,-6.3868,-6.3812,-6.3887,-6.4014,-6.4092,-6.4118,-6.4141,-6.4218,-6.4246,-6.3904,-6.3904,-6.3904,0,-6.3319,-6.3428,-6.3387,-6.3475,-6.3507,-6.3427,-6.3532,-6.3553,-6.3598,-6.3621,-6.3564,-6.3695,-6.3707,-6.3843,-6.3897,-6.3919,-6.3946,-6.3885,-6.4118,-6.414,-6.4161,-6.4234,-6.4263,-6.3913,-6.3912,-6.3911,-6.391,0,-6.3565,-6.3642,-6.3724,-6.3771,-6.3811,-6.3908,-6.388,-6.3926,-6.3891,-6.3881,-6.3992,-6.4003,-6.4059,-6.4089,-6.4056,-6.4221,-6.4189,-6.4126,-6.4024,-6.4202,-6.427,-6.4298,-6.3926,-6.3922,-6.392,-6.3918,0,0,-6.3857,-6.388,-6.3911,-6.3931,-6.3957,-6.4015,-6.4107,-6.4163,-6.4203,-6.4237,-6.4312,-6.4403,-6.4345,-6.4373,-6.4341,-6.441,-6.4581,-6.4338,-6.4338,-6.4383,-6.4764,-6.4811,-6.4844,-6.4544,-6.455,-6.4554,-6.4762,0,-6.4064,-6.4224,-6.419,-6.4347,-6.4417,-6.4342,-6.4422,-6.4446,-6.4439,-6.4497,-6.4488,-6.4554,-6.4472,-6.4489,-6.4553,-6.4547,-6.4657,-6.4531,-6.4613,-6.4617,-6.4609,-6.488,-6.493,-6.5126,-6.4788,-6.4792,-6.4795,0,-6.4327,-6.4371,-6.4536,-6.455,-6.4578,-6.4651,-6.47,-6.4756,-6.4781,-6.4771,-6.4803,-6.4758,-6.4848,-6.4746,-6.4869,-6.4785,-6.4816,-6.4818,-6.4825,-6.483,-6.4717,-6.4893,-6.5187,-6.5217,-6.4837,-6.4833,-6.4831,0,-6.4523,-6.4624,-6.4736,-6.4755,-6.4775,-6.4828,-6.4838,-6.4857,-6.4893,-6.4935,-6.4958,-6.501,-6.5038,-6.5078,-6.5048,-6.4976,-6.5176,-6.5071,-6.517,-6.5171,-6.5215,-6.5212,-6.5518,-6.5236,-6.5236,-6.5235,-6.5234,0,-6.4757,-6.4861,-6.4824,-6.4893,-6.5006,-6.4965,-6.5078,-6.5079,-6.5097,-6.5164,-6.5102,-6.5165,-6.5121,-6.5181,-6.5158,-6.5263,-6.5276,-6.527,-6.5263,-6.5276,-6.5277,-6.5295,-6.5281,-6.5243,-6.5241,-6.5239,-6.5238,0,-6.4995,-6.4975,-6.5092,-6.5101,-6.5106,-6.5189,-6.5196,-6.5259,-6.5248,-6.5333,-6.5351,-6.5333,-6.54,-6.5374,-6.5444,-6.5429,-6.5564,-6.5538,-6.5556,-6.5549,-6.5649,-6.564,-6.5977,-6.6019,-6.571,-6.5713,-6.5716,0,-6.5146,-6.5224,-6.5242,-6.5283,-6.5299,-6.5365,-6.5401,-6.5364,-6.5404,-6.5439,-6.5498,-6.5559,-6.5607,-6.5717,-6.571,-6.5764,-6.5739,-6.5853,-6.5746,-6.5757,-6.574,-6.5736,-6.5743,-6.5875,-6.5878,-6.5881,-6.5884,0,-6.5416,-6.5402,-6.5458,-6.5511,-6.5557,-6.5596,-6.563,-6.5666,-6.563,-6.5678,-6.5747,-6.5784,-6.5857,-6.5919,-6.5967,-6.5975,-6.5924,-6.5918,-6.5943,-6.5957,-6.5964,-6.5961,-6.5614,-6.591,-6.5907,-6.5905,-6.5904,-6.5903,-6.5615,-6.568,-6.5704,-6.5768,-6.5789,-6.5823,-6.5883,-6.5879,-6.5936,-6.5993,-6.5967,-6.6046,-6.6068,-6.6128,-6.6144,-6.6205,-6.616,-6.6197,-6.6206,-6.6216,-6.6229,-6.5955,-6.6213,-6.6213,-6.6212,-6.6211,-6.6211,0,-6.5881,-6.5892,-6.5952,-6.6001,-6.6052,-6.6,-6.6034,-6.608,-6.6151,-6.6177,-6.6225,-6.6303,-6.6363,-6.6361,-6.6416,-6.6465,-6.6443,-6.6481,-6.6477,-6.6479,-6.6266,-6.6238,-6.6498,-6.6498,-6.6498,-6.6498,-6.6498,-6.6498,-6.6025,-6.6134,-6.6123,-6.6241,-6.6251,-6.6329,-6.6354,-6.6383,-6.6404,-6.6495,-6.6545,-6.6543,-6.6558,-6.6613,-6.6666,-6.6663,-6.6686,-6.6733,-6.6722,-6.6523,-6.6494,-6.6467,-6.6441,-6.6739,-6.6739,-6.693,-6.6932,-6.6933]},{"header":{"parameterUnit":"m.s-1","parameterCategory":1,"la1":30.2991,"la2":30.254,"lo1":-89.0895,"lo2":-89.0444,"dy":0.0017,"dx":0.0017,"nx":28,"ny":28,"refTime":"2023-09-27T09:00:00:Z","depth":0,"parameterNumber":3,"parameterNumberName":"V-component_of_WINDS"},"data":[0,0,0,0,0,0,0,0,0,0,0,0,0,0,0,0,0,0,0,0,0,0,0,0,0,0,0,0,0,0,0,0,0,0,0,0,0,0,0,0,0,0,0,0,0,0,0,0,0,0,0,0,0,0,0,0,0,0,-3.1886,-3.1887,0,-3.199,-3.1991,-3.1992,-3.1995,-3.1994,-3.1993,-3.1992,-3.2095,-3.2099,-3.2103,0,0,0,0,0,0,0,0,0,0,0,0,0,-3.1687,-3.169,-3.1885,-3.1887,-3.1888,-3.199,-3.1991,-3.1992,-3.1996,-3.1994,-3.1992,-3.1991,-3.2094,-3.2099,-3.2104,0,0,0,0,0,0,0,0,0,0,0,0,0,-3.178,-3.1692,-3.1885,-3.1902,-3.1905,-3.1989,-3.1991,-3.1993,-3.1996,-3.1994,-3.1992,-3.199,-3.2093,-3.2098,-3.2104,-3.2178,0,0,-3.2122,-3.2125,0,0,0,0,0,0,0,0,-3.1775,-3.1787,-3.1898,-3.1901,-3.1904,-3.1978,-3.1959,-3.2055,-3.1996,-3.1961,-3.1992,-3.1989,-3.2058,-3.2066,-3.209,-3.2183,-3.2188,-3.2123,-3.2126,-3.2129,-3.2131,0,0,0,0,0,0,0,-3.1768,-3.1783,-3.1927,-3.19,-3.1903,-3.1903,-3.1915,-3.1977,-3.2019,-3.1964,-3.1965,-3.1977,-3.2059,-3.2084,-3.2092,-3.2189,-3.2123,-3.2128,-3.2131,-3.2134,-3.2349,-3.2351,0,0,0,0,0,0,-3.1759,-3.1777,-3.1923,-3.193,-3.1834,-3.1909,-3.1921,-3.1956,-3.2018,-3.2026,-3.1978,-3.1977,-3.2075,-3.2085,-3.2096,-3.2187,-3.2129,-3.2134,-3.2138,-3.2347,-3.2349,-3.2352,0,0,0,0,0,0,-3.1755,-3.1772,-3.1919,-3.1854,-3.1873,-3.1914,-3.1953,-3.1959,-3.1984,-3.2029,-3.2036,-3.1997,-3.2074,-3.2088,-3.2158,-3.2191,-3.2137,-3.2142,-3.2344,-3.2348,-3.2351,-3.237,0,0,0,0,0,0,-3.1749,-3.177,-3.18,-3.1855,-3.1876,-3.198,-3.1955,-3.1962,-3.1995,-3.1994,-3.2048,-3.2055,-3.2073,-3.2149,-3.2164,-3.2198,-3.2147,-3.2341,-3.2346,-3.2349,-3.2366,-3.2373,-3.2379,0,0,0,0,0,-3.1742,-3.18,-3.1801,-3.1819,-3.1914,-3.1982,-3.1994,-3.2015,-3.1997,-3.2027,-3.2055,-3.2054,-3.2185,-3.2156,-3.2173,-3.2209,-3.2339,-3.2344,-3.2349,-3.2363,-3.2372,-3.2379,0,0,0,0,0,0,-3.1746,-3.1807,-3.1809,-3.1887,-3.193,-3.1983,-3.202,-3.2023,-3.2071,-3.2067,-3.209,-3.2102,-3.2172,-3.2198,-3.2165,-3.2284,-3.226,-3.2268,-3.2265,-3.2273,-3.228,-3.2272,-3.2152,0,0,0,0,0,-3.1757,-3.1808,-3.1859,-3.1922,-3.1944,-3.1978,-3.2009,-3.2021,-3.2066,-3.2083,-3.2117,-3.216,-3.221,-3.2243,-3.2293,-3.237,-3.2382,-3.2403,-3.2409,-3.2414,-3.2421,-3.2464,-3.2474,-3.2368,-3.2368,-3.2368,0,0,-3.1778,-3.1818,-3.1849,-3.1924,-3.1959,-3.2011,-3.1993,-3.2049,-3.2088,-3.2091,-3.216,-3.2187,-3.2236,-3.231,-3.2344,-3.2333,-3.2454,-3.2421,-3.2424,-3.2429,-3.247,-3.248,-3.2489,-3.2371,-3.237,-3.237,0,0,-3.1844,-3.1879,-3.1937,-3.1972,-3.2024,-3.2047,-3.2061,-3.2114,-3.2132,-3.2202,-3.2206,-3.2251,-3.2339,-3.2373,-3.2402,-3.2482,-3.2482,-3.2497,-3.2531,-3.2572,-3.2581,-3.2588,-3.2617,-3.2626,-3.2504,-3.2504,-3.2504,0,-3.1863,-3.1943,-3.1965,-3.2022,-3.2055,-3.2062,-3.2119,-3.2152,-3.2218,-3.224,-3.2227,-3.2337,-3.237,-3.2453,-3.2472,-3.2496,-3.2512,-3.2491,-3.2578,-3.2586,-3.2593,-3.262,-3.2631,-3.2506,-3.2506,-3.2505,-3.2505,0,-3.1964,-3.202,-3.2059,-3.2124,-3.2161,-3.2218,-3.2248,-3.2283,-3.2293,-3.2316,-3.2387,-3.2428,-3.2485,-3.2506,-3.2515,-3.259,-3.2582,-3.2573,-3.2549,-3.2604,-3.263,-3.2641,-3.2508,-3.2507,-3.2507,-3.2507,0,0,-3.2035,-3.2112,-3.2126,-3.2156,-3.2215,-3.2258,-3.2314,-3.2372,-3.2402,-3.2447,-3.2495,-3.2569,-3.2561,-3.2594,-3.2607,-3.2644,-3.2704,-3.2631,-3.2632,-3.2643,-3.279,-3.2796,-3.2808,-3.2705,-3.2707,-3.2709,-3.2786,0,-3.2107,-3.221,-3.2232,-3.232,-3.2371,-3.2379,-3.2428,-3.2469,-3.2493,-3.2539,-3.2565,-3.2618,-3.2604,-3.2624,-3.2661,-3.2689,-3.2734,-3.2684,-3.2749,-3.2751,-3.2737,-3.2821,-3.2828,-3.2898,-3.2796,-3.2798,-3.2799,0,-3.2204,-3.2253,-3.2347,-3.24,-3.2422,-3.2466,-3.2521,-3.2565,-3.2612,-3.2627,-3.2664,-3.2674,-3.2733,-3.2706,-3.2787,-3.2753,-3.2781,-3.2799,-3.2802,-3.2809,-3.2778,-3.283,-3.2921,-3.2932,-3.2815,-3.2814,-3.2813,0,-3.2247,-3.2336,-3.2403,-3.2428,-3.2492,-3.2523,-3.255,-3.2595,-3.2629,-3.2676,-3.2698,-3.2751,-3.278,-3.2821,-3.2845,-3.2823,-3.2924,-3.2899,-3.2938,-3.2937,-3.2958,-3.2956,-3.3055,-3.2976,-3.2976,-3.2976,-3.2976,0,-3.2324,-3.2381,-3.2423,-3.2465,-3.2529,-3.2553,-3.2615,-3.2643,-3.2683,-3.2729,-3.2739,-3.2782,-3.2811,-3.2858,-3.2876,-3.2941,-3.2954,-3.2967,-3.2971,-3.2966,-3.2964,-3.2984,-3.298,-3.2979,-3.2978,-3.2978,-3.2977,0,-3.2382,-3.2412,-3.2487,-3.2541,-3.2556,-3.2601,-3.2647,-3.2687,-3.2712,-3.277,-3.2785,-3.2824,-3.288,-3.2907,-3.2976,-3.2989,-3.3062,-3.3063,-3.3046,-3.3048,-3.3084,-3.3081,-3.3199,-3.3216,-3.3126,-3.3127,-3.3128,0,-3.2429,-3.2474,-3.2533,-3.2566,-3.2595,-3.2646,-3.2681,-3.2707,-3.2742,-3.2799,-3.2832,-3.2889,-3.2936,-3.3025,-3.3058,-3.3111,-3.3114,-3.3152,-3.3122,-3.3115,-3.3114,-3.3111,-3.3116,-3.3157,-3.3158,-3.3158,-3.3159,0,-3.251,-3.2524,-3.2574,-3.2629,-3.2671,-3.2715,-3.2759,-3.2785,-3.2817,-3.2857,-3.2915,-3.2951,-3.3022,-3.3078,-3.3134,-3.3162,-3.3166,-3.3168,-3.318,-3.3175,-3.3164,-3.317,-3.3061,-3.3165,-3.3165,-3.3164,-3.3164,-3.3163,-3.2564,-3.2604,-3.2653,-3.2708,-3.2744,-3.2785,-3.2826,-3.2856,-3.2906,-3.2966,-3.2978,-3.304,-3.3086,-3.3161,-3.3191,-3.3239,-3.323,-3.3247,-3.3251,-3.3255,-3.3257,-3.3156,-3.3249,-3.3249,-3.3248,-3.3248,-3.3248,0,-3.2646,-3.2678,-3.2729,-3.2791,-3.2834,-3.2836,-3.2884,-3.292,-3.2975,-3.3018,-3.3064,-3.3131,-3.3185,-3.3223,-3.3279,-3.331,-3.3313,-3.3324,-3.3321,-3.3328,-3.3261,-3.3246,-3.332,-3.332,-3.332,-3.332,-3.332,-3.332,-3.2693,-3.2761,-3.278,-3.2866,-3.2897,-3.2958,-3.2986,-3.3024,-3.3058,-3.3133,-3.3179,-3.3204,-3.3244,-3.3303,-3.3353,-3.3363,-3.3383,-3.3393,-3.3403,-3.334,-3.3332,-3.3325,-3.331,-3.3397,-3.3397,-3.3465,-3.3466,-3.3466]}]]